,,PA_Meas_PMT16A,,PR_Meas_QMR101_102,,RH_Meas_QMH101,,SR_Meas_QMS101,,TA_Meas_QMH101,,GenWind,,GenWind,
time,status,PA,status,PR,status,RH,status,SR,status,TA,status,DirAvg,status,SpdAvg,
2012-03-02, 00:00:05,VALID,915.798,VALID,0,VALID,96.9775,VALID,0,VALID,18.6485,VALID,127,VALID,1.08438,
2012-03-02, 00:01:05,VALID,915.761,VALID,0,VALID,97.008,VALID,0,VALID,18.6485,VALID,127,VALID,1.14766,
2012-03-02, 00:02:05,VALID,915.755,VALID,0,VALID,97.0232,VALID,0.107441,VALID,18.668,VALID,127,VALID,0.835547,
2012-03-02, 00:03:05,VALID,915.736,VALID,0,VALID,97.0308,VALID,0,VALID,18.6485,VALID,127,VALID,1.08047,
2012-03-02, 00:04:05,VALID,915.761,VALID,0,VALID,97.0461,VALID,0.107441,VALID,18.6485,VALID,127,VALID,0.79375,
2012-03-02, 00:05:05,VALID,915.783,VALID,0,VALID,97.0385,VALID,0,VALID,18.6485,VALID,127,VALID,0.907422,
2012-03-02, 00:06:05,VALID,915.815,VALID,0,VALID,97.0842,VALID,0,VALID,18.6485,VALID,137,VALID,0.875,
2012-03-02, 00:07:05,VALID,915.787,VALID,0,VALID,97.0537,VALID,0,VALID,18.6499,VALID,139,VALID,0.878125,
2012-03-02, 00:08:05,VALID,915.793,VALID,0,VALID,97.1223,VALID,0,VALID,18.629,VALID,134,VALID,0.864844,
2012-03-02, 00:09:05,VALID,915.781,VALID,0,VALID,97.1223,VALID,0,VALID,18.629,VALID,133,VALID,0.844141,
2012-03-02, 00:10:05,VALID,915.791,VALID,0,VALID,97.1604,VALID,0.107441,VALID,18.6485,VALID,133,VALID,1.06992,
2012-03-02, 00:11:05,VALID,915.82,VALID,0,VALID,97.1604,VALID,0,VALID,18.6485,VALID,133,VALID,1.16172,
2012-03-02, 00:12:05,VALID,915.807,VALID,0,VALID,97.1833,VALID,0.107441,VALID,18.668,VALID,133,VALID,0.802734,
2012-03-02, 00:13:05,VALID,915.787,VALID,0,VALID,97.1986,VALID,0.107441,VALID,18.6875,VALID,121,VALID,1.07344,
2012-03-02, 00:14:05,VALID,915.795,VALID,0,VALID,97.2062,VALID,0,VALID,18.6889,VALID,121,VALID,1.05273,
2012-03-02, 00:15:05,VALID,915.754,VALID,0,VALID,97.2062,VALID,0,VALID,18.707,VALID,116,VALID,1.41602,
2012-03-02, 00:16:05,VALID,915.769,VALID,0,VALID,97.2062,VALID,0,VALID,18.7474,VALID,116,VALID,1.21953,
2012-03-02, 00:17:05,VALID,915.741,VALID,0,VALID,97.1681,VALID,0,VALID,18.7655,VALID,117,VALID,0.980859,
2012-03-02, 00:18:05,VALID,915.701,VALID,0,VALID,97.1604,VALID,0,VALID,18.7655,VALID,117,VALID,1.12812,
2012-03-02, 00:19:05,VALID,915.702,VALID,0,VALID,97.1528,VALID,0,VALID,18.7864,VALID,117,VALID,1.11602,
2012-03-02, 00:20:05,VALID,915.7,VALID,0,VALID,97.1223,VALID,0,VALID,18.785,VALID,117,VALID,1.00352,
2012-03-02, 00:21:05,VALID,915.687,VALID,0,VALID,97.0994,VALID,0,VALID,18.8254,VALID,117,VALID,0.951953,
2012-03-02, 00:22:05,VALID,915.71,VALID,0,VALID,97.0994,VALID,0,VALID,18.8045,VALID,117,VALID,0.891797,
2012-03-02, 00:23:05,VALID,915.693,VALID,0,VALID,97.0842,VALID,0,VALID,18.824,VALID,117,VALID,1.075,
2012-03-02, 00:24:05,VALID,915.703,VALID,0,VALID,97.0461,VALID,0,VALID,18.8644,VALID,117,VALID,0.635547,
2012-03-02, 00:25:05,VALID,915.695,VALID,0,VALID,97.0156,VALID,0,VALID,18.8839,VALID,117,VALID,0.725391,
2012-03-02, 00:26:05,VALID,915.664,VALID,0,VALID,96.9775,VALID,0,VALID,18.8839,VALID,117,VALID,0.56875,
2012-03-02, 00:27:05,VALID,915.621,VALID,0,VALID,96.9622,VALID,0,VALID,18.8839,VALID,117,VALID,0.344531,
2012-03-02, 00:28:05,VALID,915.641,VALID,0,VALID,96.9317,VALID,0,VALID,18.9034,VALID,117,VALID,0.598047,
2012-03-02, 00:29:05,VALID,915.596,VALID,0,VALID,96.9012,VALID,0,VALID,18.9034,VALID,117,VALID,0.851172,
2012-03-02, 00:30:05,VALID,915.583,VALID,0,VALID,96.825,VALID,0,VALID,18.8824,VALID,117,VALID,0.788281,
2012-03-02, 00:31:05,VALID,915.578,VALID,0,VALID,96.764,VALID,0,VALID,18.8824,VALID,117,VALID,0.689453,
2012-03-02, 00:32:05,VALID,915.554,VALID,0,VALID,96.7183,VALID,0,VALID,18.9034,VALID,118,VALID,0.621094,
2012-03-02, 00:33:05,VALID,915.568,VALID,0,VALID,96.6725,VALID,0,VALID,18.8824,VALID,117,VALID,0.78125,
2012-03-02, 00:34:04,VALID,915.575,VALID,0,VALID,96.6497,VALID,0,VALID,18.8824,VALID,117,VALID,0.908984,
2012-03-02, 00:35:04,VALID,915.596,VALID,0,VALID,96.6344,VALID,0,VALID,18.9034,VALID,117,VALID,0.949219,
2012-03-02, 00:36:04,VALID,915.593,VALID,0,VALID,96.5658,VALID,0,VALID,18.8615,VALID,117,VALID,0.691406,
2012-03-02, 00:37:04,VALID,915.57,VALID,0,VALID,96.5277,VALID,0,VALID,18.8839,VALID,117,VALID,0.803516,
2012-03-02, 00:38:04,VALID,915.584,VALID,0,VALID,96.4972,VALID,0,VALID,18.8644,VALID,117,VALID,0.559375,
2012-03-02, 00:39:04,VALID,915.543,VALID,0,VALID,96.4743,VALID,0,VALID,18.8644,VALID,117,VALID,0.713281,
2012-03-02, 00:40:04,VALID,915.537,VALID,0,VALID,96.4515,VALID,0,VALID,18.8839,VALID,117,VALID,0.622266,
2012-03-02, 00:41:04,VALID,915.525,VALID,0,VALID,96.421,VALID,0,VALID,18.8824,VALID,117,VALID,0.750391,
2012-03-02, 00:42:04,VALID,915.496,VALID,0,VALID,96.3752,VALID,0,VALID,18.9229,VALID,117,VALID,0.571875,
2012-03-02, 00:43:04,VALID,915.469,VALID,0,VALID,96.3371,VALID,0,VALID,18.9229,VALID,117,VALID,0.59375,
2012-03-02, 00:44:04,VALID,915.439,VALID,0,VALID,96.3142,VALID,0,VALID,18.9229,VALID,117,VALID,0.864453,
2012-03-02, 00:45:04,VALID,915.408,VALID,0,VALID,96.2609,VALID,0,VALID,18.9229,VALID,117,VALID,0.784375,
2012-03-02, 00:46:04,VALID,915.383,VALID,0,VALID,96.2228,VALID,0,VALID,18.9214,VALID,118,VALID,0.8375,
2012-03-02, 00:47:04,VALID,915.404,VALID,0,VALID,96.1846,VALID,0,VALID,18.9229,VALID,118,VALID,0.723828,
2012-03-02, 00:48:04,VALID,915.339,VALID,0,VALID,96.1618,VALID,0,VALID,18.9229,VALID,117,VALID,0.913672,
2012-03-02, 00:49:04,VALID,915.327,VALID,0,VALID,96.1008,VALID,0,VALID,18.8824,VALID,117,VALID,0.718359,
2012-03-02, 00:50:04,VALID,915.329,VALID,0,VALID,96.0855,VALID,0,VALID,18.9034,VALID,117,VALID,0.777344,
2012-03-02, 00:51:04,VALID,915.327,VALID,0,VALID,96.0932,VALID,0,VALID,18.8824,VALID,117,VALID,0.835938,
2012-03-02, 00:52:04,VALID,915.31,VALID,0,VALID,96.1008,VALID,0,VALID,18.9034,VALID,117,VALID,1.02617,
2012-03-02, 00:53:04,VALID,915.296,VALID,0,VALID,96.0627,VALID,0,VALID,18.8629,VALID,118,VALID,0.855469,
2012-03-02, 00:54:04,VALID,915.327,VALID,0,VALID,96.0932,VALID,0,VALID,18.9034,VALID,117,VALID,0.730469,
2012-03-02, 00:55:04,VALID,915.268,VALID,0,VALID,96.055,VALID,0,VALID,18.8406,VALID,117,VALID,0.872266,
2012-03-02, 00:56:04,VALID,915.259,VALID,0,VALID,96.0169,VALID,0,VALID,18.8615,VALID,117,VALID,0.920313,
2012-03-02, 00:57:04,VALID,915.255,VALID,0,VALID,96.0322,VALID,0,VALID,18.9048,VALID,117,VALID,1.03359,
2012-03-02, 00:58:04,VALID,915.254,VALID,0,VALID,96.0398,VALID,0,VALID,18.8824,VALID,118,VALID,0.880469,
2012-03-02, 00:59:04,VALID,915.257,VALID,0,VALID,96.0322,VALID,0,VALID,18.8824,VALID,117,VALID,0.786719,
2012-03-02, 01:00:04,VALID,915.25,VALID,0,VALID,96.0322,VALID,0,VALID,18.8615,VALID,117,VALID,0.634766,
2012-03-02, 01:01:04,VALID,915.258,VALID,0,VALID,96.0017,VALID,0,VALID,18.9048,VALID,117,VALID,0.833203,
2012-03-02, 01:02:04,VALID,915.225,VALID,0,VALID,95.9788,VALID,0,VALID,18.8839,VALID,117,VALID,0.875,
2012-03-02, 01:03:04,VALID,915.199,VALID,0,VALID,96.0017,VALID,0,VALID,18.8434,VALID,118,VALID,0.911719,
2012-03-02, 01:04:04,VALID,915.193,VALID,0,VALID,96.0169,VALID,0,VALID,18.9034,VALID,118,VALID,0.908203,
2012-03-02, 01:05:04,VALID,915.182,VALID,0,VALID,96.0169,VALID,0,VALID,18.8839,VALID,118,VALID,1.02344,
2012-03-02, 01:06:04,VALID,915.137,VALID,0,VALID,96.0017,VALID,0,VALID,18.8839,VALID,117,VALID,0.966797,
2012-03-02, 01:07:04,VALID,915.121,VALID,0,VALID,96.0322,VALID,0,VALID,18.8434,VALID,135,VALID,1.2082,
2012-03-02, 01:08:04,VALID,915.081,VALID,0,VALID,96.0093,VALID,0,VALID,18.8615,VALID,134,VALID,1.0543,
2012-03-02, 01:09:04,VALID,915.073,VALID,0,VALID,96.0169,VALID,0,VALID,18.9452,VALID,134,VALID,0.767969,
2012-03-02, 01:10:04,VALID,915.022,VALID,0,VALID,96.0017,VALID,0,VALID,18.8839,VALID,134,VALID,0.586719,
2012-03-02, 01:11:04,VALID,915.024,VALID,0,VALID,95.9864,VALID,0,VALID,18.8839,VALID,135,VALID,0.502734,
2012-03-02, 01:12:04,VALID,914.981,VALID,0,VALID,95.9864,VALID,0,VALID,18.842,VALID,135,VALID,0.764844,
2012-03-02, 01:13:04,VALID,914.958,VALID,0,VALID,96.0093,VALID,0,VALID,18.9676,VALID,135,VALID,0.769531,
2012-03-02, 01:14:04,VALID,914.895,VALID,0,VALID,96.0093,VALID,0,VALID,18.8225,VALID,134,VALID,0.859766,
2012-03-02, 01:15:04,VALID,914.886,VALID,0,VALID,96.0245,VALID,0.107441,VALID,18.842,VALID,134,VALID,0.782422,
2012-03-02, 01:16:04,VALID,914.875,VALID,0,VALID,96.0169,VALID,0,VALID,18.8853,VALID,134,VALID,0.921484,
2012-03-02, 01:17:04,VALID,914.861,VALID,0,VALID,96.0398,VALID,0,VALID,18.8045,VALID,135,VALID,0.808203,
2012-03-02, 01:18:04,VALID,914.821,VALID,0,VALID,96.0322,VALID,0,VALID,18.7835,VALID,134,VALID,0.907031,
2012-03-02, 01:19:04,VALID,914.809,VALID,0,VALID,96.0169,VALID,0,VALID,18.8463,VALID,135,VALID,0.964063,
2012-03-02, 01:20:04,VALID,914.799,VALID,0,VALID,96.0245,VALID,0,VALID,18.764,VALID,135,VALID,0.819141,
2012-03-02, 01:21:04,VALID,914.828,VALID,0,VALID,96.0855,VALID,0,VALID,18.8254,VALID,133,VALID,1.17813,
2012-03-02, 01:22:04,VALID,914.799,VALID,0,VALID,96.116,VALID,0,VALID,18.8059,VALID,127,VALID,1.03867,
2012-03-02, 01:23:04,VALID,914.779,VALID,0,VALID,96.1465,VALID,0,VALID,18.7251,VALID,136,VALID,0.975391,
2012-03-02, 01:24:04,VALID,914.778,VALID,0,VALID,96.1465,VALID,0,VALID,18.7431,VALID,132,VALID,1.17148,
2012-03-02, 01:25:04,VALID,914.754,VALID,0,VALID,96.1694,VALID,0,VALID,18.8882,VALID,130,VALID,1.05156,
2012-03-02, 01:26:04,VALID,914.769,VALID,0,VALID,96.1999,VALID,0,VALID,18.8059,VALID,130,VALID,1.09258,
2012-03-02, 01:27:04,VALID,914.757,VALID,0,VALID,96.1999,VALID,0,VALID,18.785,VALID,130,VALID,0.807031,
2012-03-02, 01:28:04,VALID,914.8,VALID,0,VALID,96.2151,VALID,0,VALID,18.785,VALID,130,VALID,1.0457,
2012-03-02, 01:29:04,VALID,914.8,VALID,0,VALID,96.2228,VALID,0,VALID,18.785,VALID,130,VALID,0.889453,
2012-03-02, 01:30:04,VALID,914.816,VALID,0,VALID,96.2456,VALID,0,VALID,18.8059,VALID,121,VALID,1.1457,
2012-03-02, 01:31:04,VALID,914.785,VALID,0,VALID,96.2609,VALID,0,VALID,18.8059,VALID,127,VALID,1.14102,
2012-03-02, 01:32:04,VALID,914.777,VALID,0,VALID,96.2761,VALID,0,VALID,18.8073,VALID,128,VALID,1.14961,
2012-03-02, 01:33:04,VALID,914.777,VALID,0,VALID,96.2609,VALID,0,VALID,18.764,VALID,128,VALID,1.40234,
2012-03-02, 01:34:04,VALID,914.746,VALID,0,VALID,96.3142,VALID,0,VALID,18.7835,VALID,128,VALID,1.12461,
2012-03-02, 01:35:04,VALID,914.712,VALID,0,VALID,96.2914,VALID,0,VALID,18.8073,VALID,128,VALID,0.782812,
2012-03-02, 01:36:04,VALID,914.701,VALID,0,VALID,96.3219,VALID,0,VALID,18.7864,VALID,128,VALID,1.27813,
2012-03-02, 01:37:04,VALID,914.662,VALID,0,VALID,96.299,VALID,0,VALID,18.7864,VALID,129,VALID,0.658203,
2012-03-02, 01:38:04,VALID,914.604,VALID,0,VALID,96.3371,VALID,0,VALID,18.7251,VALID,128,VALID,1.18438,
2012-03-02, 01:39:04,VALID,914.586,VALID,0,VALID,96.3676,VALID,0,VALID,18.7265,VALID,128,VALID,0.675391,
2012-03-02, 01:40:04,VALID,914.551,VALID,0,VALID,96.3829,VALID,0,VALID,18.7683,VALID,128,VALID,0.745313,
2012-03-02, 01:41:04,VALID,914.528,VALID,0,VALID,96.4286,VALID,0,VALID,18.7056,VALID,128,VALID,1.02617,
2012-03-02, 01:42:04,VALID,914.499,VALID,0,VALID,96.4515,VALID,0,VALID,18.707,VALID,127,VALID,1.11484,
2012-03-02, 01:43:04,VALID,914.498,VALID,0,VALID,96.4667,VALID,0,VALID,18.6875,VALID,128,VALID,0.941406,
2012-03-02, 01:44:04,VALID,914.498,VALID,0,VALID,96.4743,VALID,0,VALID,18.6903,VALID,128,VALID,0.952344,
2012-03-02, 01:45:04,VALID,914.476,VALID,0,VALID,96.4591,VALID,0,VALID,18.6485,VALID,128,VALID,0.710938,
2012-03-02, 01:46:04,VALID,914.46,VALID,0,VALID,96.5811,VALID,0,VALID,18.6708,VALID,127,VALID,1.03516,
2012-03-02, 01:47:04,VALID,914.488,VALID,0,VALID,96.5887,VALID,0,VALID,18.629,VALID,127,VALID,0.758984,
2012-03-02, 01:48:04,VALID,914.472,VALID,0,VALID,96.6268,VALID,0,VALID,18.6095,VALID,127,VALID,0.767187,
2012-03-02, 01:49:04,VALID,914.437,VALID,0,VALID,96.6649,VALID,0,VALID,18.6095,VALID,127,VALID,0.854297,
2012-03-02, 01:50:04,VALID,914.434,VALID,0,VALID,96.6649,VALID,0,VALID,18.6513,VALID,127,VALID,0.832422,
2012-03-02, 01:51:04,VALID,914.422,VALID,0,VALID,96.703,VALID,0,VALID,18.5886,VALID,127,VALID,0.905859,
2012-03-02, 01:52:04,VALID,914.424,VALID,0,VALID,96.7259,VALID,0,VALID,18.59,VALID,127,VALID,0.864062,
2012-03-02, 01:53:04,VALID,914.441,VALID,0,VALID,96.7335,VALID,0,VALID,18.59,VALID,126,VALID,1.01406,
2012-03-02, 01:54:04,VALID,914.443,VALID,0,VALID,96.8021,VALID,0,VALID,18.6304,VALID,127,VALID,0.808203,
2012-03-02, 01:55:04,VALID,914.459,VALID,0,VALID,96.7869,VALID,0,VALID,18.6081,VALID,127,VALID,0.856641,
2012-03-02, 01:56:04,VALID,914.447,VALID,0,VALID,96.8021,VALID,0,VALID,18.6694,VALID,126,VALID,0.843359,
2012-03-02, 01:57:04,VALID,914.413,VALID,0,VALID,96.7488,VALID,0,VALID,18.6053,VALID,127,VALID,0.923047,
2012-03-02, 01:58:04,VALID,914.419,VALID,0,VALID,96.7411,VALID,0,VALID,18.7503,VALID,126,VALID,0.788281,
2012-03-02, 01:59:04,VALID,914.423,VALID,0,VALID,96.7183,VALID,0,VALID,18.7279,VALID,126,VALID,0.75625,
2012-03-02, 02:00:04,VALID,914.403,VALID,0,VALID,96.6802,VALID,0,VALID,18.7683,VALID,123,VALID,0.742578,
2012-03-02, 02:01:04,VALID,914.395,VALID,0,VALID,96.6954,VALID,0,VALID,18.7265,VALID,124,VALID,0.934766,
2012-03-02, 02:02:04,VALID,914.351,VALID,0,VALID,96.6649,VALID,0,VALID,18.7878,VALID,123,VALID,0.703906,
2012-03-02, 02:03:04,VALID,914.341,VALID,0,VALID,96.6268,VALID,0,VALID,18.8087,VALID,123,VALID,0.226953,
2012-03-02, 02:04:04,VALID,914.356,VALID,0,VALID,96.5887,VALID,0,VALID,18.7683,VALID,125,VALID,0.0796875,
2012-03-02, 02:05:04,VALID,914.364,VALID,0,VALID,96.5582,VALID,0,VALID,18.707,VALID,124,VALID,0.127734,
2012-03-02, 02:06:04,VALID,914.35,VALID,0,VALID,96.5277,VALID,0,VALID,18.7878,VALID,124,VALID,0,
2012-03-02, 02:07:04,VALID,914.328,VALID,0,VALID,96.5201,VALID,0,VALID,18.7488,VALID,123,VALID,0,
2012-03-02, 02:08:04,VALID,914.322,VALID,0,VALID,96.5429,VALID,0,VALID,18.6457,VALID,124,VALID,0,
2012-03-02, 02:09:04,VALID,914.295,VALID,0,VALID,96.5506,VALID,0,VALID,18.6471,VALID,124,VALID,0,
2012-03-02, 02:10:04,VALID,914.27,VALID,0,VALID,96.5506,VALID,0,VALID,18.6471,VALID,124,VALID,0,
2012-03-02, 02:11:04,VALID,914.244,VALID,0,VALID,96.5277,VALID,0,VALID,18.6067,VALID,124,VALID,0,
2012-03-02, 02:12:04,VALID,914.251,VALID,0,VALID,96.5658,VALID,0,VALID,18.6485,VALID,124,VALID,0,
2012-03-02, 02:13:04,VALID,914.257,VALID,0,VALID,96.5277,VALID,0,VALID,18.6708,VALID,124,VALID,0,
2012-03-02, 02:14:04,VALID,914.232,VALID,0,VALID,96.5277,VALID,0,VALID,18.5691,VALID,124,VALID,0,
2012-03-02, 02:15:04,VALID,914.257,VALID,0,VALID,96.6115,VALID,0,VALID,18.6319,VALID,124,VALID,0,
2012-03-02, 02:16:04,VALID,914.204,VALID,0,VALID,96.6573,VALID,0,VALID,18.5886,VALID,124,VALID,0,
2012-03-02, 02:17:04,VALID,914.214,VALID,0,VALID,96.6802,VALID,0,VALID,18.6304,VALID,124,VALID,0,
2012-03-02, 02:18:04,VALID,914.196,VALID,0,VALID,96.7183,VALID,0,VALID,18.6095,VALID,124,VALID,0,
2012-03-02, 02:19:04,VALID,914.135,VALID,0,VALID,96.7259,VALID,0,VALID,18.59,VALID,124,VALID,0,
2012-03-02, 02:20:04,VALID,914.112,VALID,0,VALID,96.7564,VALID,0,VALID,18.6319,VALID,124,VALID,0,
2012-03-02, 02:21:04,VALID,914.093,VALID,0,VALID,96.7488,VALID,0,VALID,18.7141,VALID,124,VALID,0,
2012-03-02, 02:22:04,VALID,914.056,VALID,0,VALID,96.7793,VALID,0,VALID,18.6109,VALID,124,VALID,0,
2012-03-02, 02:23:04,VALID,914.045,VALID,0,VALID,96.7488,VALID,0,VALID,18.6081,VALID,124,VALID,0,
2012-03-02, 02:24:04,VALID,914.033,VALID,0,VALID,96.764,VALID,0,VALID,18.6723,VALID,124,VALID,0,
2012-03-02, 02:25:04,VALID,914.029,VALID,0,VALID,96.7259,VALID,0,VALID,18.6499,VALID,124,VALID,0,
2012-03-02, 02:26:04,VALID,914.013,VALID,0,VALID,96.7183,VALID,0,VALID,18.6095,VALID,124,VALID,0,
2012-03-02, 02:27:04,VALID,914.011,VALID,0,VALID,96.7107,VALID,0,VALID,18.6499,VALID,124,VALID,0,
2012-03-02, 02:28:04,VALID,913.999,VALID,0,VALID,96.6954,VALID,0,VALID,18.6694,VALID,124,VALID,0,
2012-03-02, 02:29:04,VALID,913.963,VALID,0,VALID,96.6725,VALID,0,VALID,18.629,VALID,124,VALID,0,
2012-03-02, 02:30:04,VALID,913.987,VALID,0,VALID,96.6649,VALID,0,VALID,18.6471,VALID,124,VALID,0,
2012-03-02, 02:31:04,VALID,913.96,VALID,0,VALID,96.6115,VALID,0,VALID,18.7293,VALID,124,VALID,0,
2012-03-02, 02:32:04,VALID,913.962,VALID,0,VALID,96.6039,VALID,0,VALID,18.7488,VALID,124,VALID,0,
2012-03-02, 02:33:04,VALID,913.951,VALID,0,VALID,96.5429,VALID,0,VALID,18.7279,VALID,124,VALID,0,
2012-03-02, 02:34:04,VALID,913.948,VALID,0,VALID,96.4743,VALID,0,VALID,18.7265,VALID,124,VALID,0,
2012-03-02, 02:35:04,VALID,913.978,VALID,0,VALID,96.4133,VALID,0,VALID,18.7265,VALID,124,VALID,0,
2012-03-02, 02:36:04,VALID,913.952,VALID,0,VALID,96.3219,VALID,0,VALID,18.7251,VALID,124,VALID,0,
2012-03-02, 02:37:04,VALID,913.951,VALID,0,VALID,96.2685,VALID,0,VALID,18.7683,VALID,123,VALID,0,
2012-03-02, 02:38:04,VALID,913.923,VALID,0,VALID,96.1541,VALID,0,VALID,18.7265,VALID,124,VALID,0,
2012-03-02, 02:39:04,VALID,913.931,VALID,0,VALID,96.0703,VALID,0,VALID,18.7474,VALID,124,VALID,0,
2012-03-02, 02:40:04,VALID,913.955,VALID,0,VALID,96.0398,VALID,0,VALID,18.7293,VALID,124,VALID,0,
2012-03-02, 02:41:04,VALID,913.958,VALID,0,VALID,95.9636,VALID,0,VALID,18.6889,VALID,124,VALID,0,
2012-03-02, 02:42:04,VALID,913.929,VALID,0,VALID,95.7577,VALID,0,VALID,18.6304,VALID,124,VALID,0,
2012-03-02, 02:43:04,VALID,913.967,VALID,0,VALID,95.5519,VALID,0,VALID,18.5316,VALID,124,VALID,0,
2012-03-02, 02:44:04,VALID,913.927,VALID,0,VALID,95.5824,VALID,0,VALID,18.4327,VALID,124,VALID,0,
2012-03-02, 02:45:04,VALID,913.92,VALID,0,VALID,95.7425,VALID,0,VALID,18.4132,VALID,124,VALID,0,
2012-03-02, 02:46:04,VALID,913.904,VALID,0,VALID,95.834,VALID,0,VALID,18.416,VALID,124,VALID,0,
2012-03-02, 02:47:04,VALID,913.906,VALID,0,VALID,95.8492,VALID,0,VALID,18.4188,VALID,124,VALID,0,
2012-03-02, 02:48:04,VALID,913.889,VALID,0,VALID,95.9026,VALID,0,VALID,18.3172,VALID,123,VALID,0,
2012-03-02, 02:49:04,VALID,913.869,VALID,0,VALID,96.0169,VALID,0,VALID,18.3798,VALID,124,VALID,0,
2012-03-02, 02:50:04,VALID,913.853,VALID,0,VALID,96.1084,VALID,0,VALID,18.3366,VALID,124,VALID,0,
2012-03-02, 02:51:04,VALID,913.874,VALID,0,VALID,96.1999,VALID,0,VALID,18.3366,VALID,124,VALID,0,
2012-03-02, 02:52:04,VALID,913.859,VALID,0,VALID,96.2761,VALID,0,VALID,18.3352,VALID,124,VALID,0,
2012-03-02, 02:53:04,VALID,913.852,VALID,0,VALID,96.3142,VALID,0,VALID,18.3561,VALID,123,VALID,0,
2012-03-02, 02:54:04,VALID,913.878,VALID,0,VALID,96.3295,VALID,0,VALID,18.3352,VALID,123,VALID,0,
2012-03-02, 02:55:04,VALID,913.868,VALID,0,VALID,96.2761,VALID,0,VALID,18.3561,VALID,124,VALID,0,
2012-03-02, 02:56:04,VALID,913.854,VALID,0,VALID,96.238,VALID,0,VALID,18.3172,VALID,124,VALID,0,
2012-03-02, 02:57:04,VALID,913.866,VALID,0,VALID,96.116,VALID,0,VALID,18.2796,VALID,123,VALID,0,
2012-03-02, 02:58:04,VALID,913.827,VALID,0,VALID,96.1008,VALID,0,VALID,18.3436,VALID,123,VALID,0,
2012-03-02, 02:59:04,VALID,913.849,VALID,0,VALID,96.2837,VALID,0,VALID,18.2183,VALID,124,VALID,0,
2012-03-02, 03:00:04,VALID,913.804,VALID,0,VALID,96.36,VALID,0,VALID,18.2809,VALID,124,VALID,0,
2012-03-02, 03:01:04,VALID,913.811,VALID,0,VALID,96.3752,VALID,0,VALID,18.3436,VALID,124,VALID,0,
2012-03-02, 03:02:04,VALID,913.776,VALID,0,VALID,96.4591,VALID,0,VALID,18.3394,VALID,123,VALID,0,
2012-03-02, 03:03:04,VALID,913.808,VALID,0,VALID,96.5201,VALID,0,VALID,18.338,VALID,124,VALID,0,
2012-03-02, 03:04:04,VALID,913.808,VALID,0,VALID,96.5887,VALID,0,VALID,18.3965,VALID,124,VALID,0,
2012-03-02, 03:05:04,VALID,913.834,VALID,0,VALID,96.6039,VALID,0,VALID,18.416,VALID,123,VALID,0,
2012-03-02, 03:06:04,VALID,913.818,VALID,0,VALID,96.5887,VALID,0,VALID,18.416,VALID,124,VALID,0,
2012-03-02, 03:07:04,VALID,913.808,VALID,0,VALID,96.5506,VALID,0,VALID,18.4383,VALID,124,VALID,0,
2012-03-02, 03:08:04,VALID,913.821,VALID,0,VALID,96.5353,VALID,0,VALID,18.4174,VALID,124,VALID,0,
2012-03-02, 03:09:04,VALID,913.784,VALID,0,VALID,96.5277,VALID,0,VALID,18.4174,VALID,123,VALID,0,
2012-03-02, 03:10:04,VALID,913.754,VALID,0,VALID,96.5658,VALID,0,VALID,18.3951,VALID,124,VALID,0,
2012-03-02, 03:11:04,VALID,913.748,VALID,0,VALID,96.6039,VALID,0,VALID,18.4369,VALID,124,VALID,0,
2012-03-02, 03:12:04,VALID,913.779,VALID,0,VALID,96.6573,VALID,0,VALID,18.3742,VALID,124,VALID,0,
2012-03-02, 03:13:04,VALID,913.783,VALID,0,VALID,96.7107,VALID,0,VALID,18.4536,VALID,124,VALID,0,
2012-03-02, 03:14:04,VALID,913.77,VALID,0,VALID,96.703,VALID,0,VALID,18.4968,VALID,124,VALID,0,
2012-03-02, 03:15:04,VALID,913.775,VALID,0,VALID,96.6268,VALID,0,VALID,18.416,VALID,124,VALID,0,
2012-03-02, 03:16:04,VALID,913.756,VALID,0,VALID,96.4286,VALID,0,VALID,18.3589,VALID,124,VALID,0,
2012-03-02, 03:17:04,VALID,913.735,VALID,0,VALID,96.36,VALID,0,VALID,18.2587,VALID,124,VALID,0,
2012-03-02, 03:18:04,VALID,913.758,VALID,0,VALID,96.5048,VALID,0,VALID,18.2197,VALID,124,VALID,0,
2012-03-02, 03:19:04,VALID,913.728,VALID,0,VALID,96.642,VALID,0,VALID,18.2601,VALID,124,VALID,0,
2012-03-02, 03:20:04,VALID,913.71,VALID,0,VALID,96.7488,VALID,0,VALID,18.2601,VALID,124,VALID,0,
2012-03-02, 03:21:04,VALID,913.695,VALID,0,VALID,96.8784,VALID,0,VALID,18.2796,VALID,124,VALID,0,
2012-03-02, 03:22:04,VALID,913.702,VALID,0,VALID,96.9012,VALID,0,VALID,18.2796,VALID,124,VALID,0,
2012-03-02, 03:23:04,VALID,913.654,VALID,0,VALID,96.9851,VALID,0,VALID,18.338,VALID,124,VALID,0,
2012-03-02, 03:24:04,VALID,913.643,VALID,0,VALID,96.8936,VALID,0,VALID,18.338,VALID,124,VALID,0,
2012-03-02, 03:25:04,VALID,913.668,VALID,0,VALID,96.7488,VALID,0,VALID,18.2796,VALID,124,VALID,0,
2012-03-02, 03:26:04,VALID,913.658,VALID,0,VALID,96.6802,VALID,0,VALID,18.2016,VALID,124,VALID,0,
2012-03-02, 03:27:04,VALID,913.664,VALID,0,VALID,96.886,VALID,0,VALID,18.2406,VALID,124,VALID,0,
2012-03-02, 03:28:04,VALID,913.643,VALID,0,VALID,97.0308,VALID,0,VALID,18.3185,VALID,124,VALID,0,
2012-03-02, 03:29:04,VALID,913.679,VALID,0,VALID,97.008,VALID,0,VALID,18.3185,VALID,123,VALID,0,
2012-03-02, 03:30:04,VALID,913.683,VALID,0,VALID,96.8936,VALID,0,VALID,18.2392,VALID,124,VALID,0,
2012-03-02, 03:31:04,VALID,913.72,VALID,0,VALID,96.9698,VALID,0,VALID,18.2587,VALID,124,VALID,0,
2012-03-02, 03:32:04,VALID,913.677,VALID,0,VALID,97.0842,VALID,0,VALID,18.3185,VALID,124,VALID,0,
2012-03-02, 03:33:04,VALID,913.677,VALID,0,VALID,97.1604,VALID,0,VALID,18.377,VALID,124,VALID,0,
2012-03-02, 03:34:04,VALID,913.646,VALID,0,VALID,97.1299,VALID,0,VALID,18.3965,VALID,124,VALID,0,
2012-03-02, 03:35:04,VALID,913.637,VALID,0,VALID,97.0842,VALID,0,VALID,18.3965,VALID,124,VALID,0,
2012-03-02, 03:36:04,VALID,913.645,VALID,0,VALID,97.0613,VALID,0,VALID,18.3951,VALID,124,VALID,0,
2012-03-02, 03:37:04,VALID,913.656,VALID,0,VALID,97.0918,VALID,0,VALID,18.4745,VALID,124,VALID,0,
2012-03-02, 03:38:04,VALID,913.63,VALID,0,VALID,97.0461,VALID,0,VALID,18.4731,VALID,124,VALID,0,
2012-03-02, 03:39:04,VALID,913.616,VALID,0,VALID,96.9851,VALID,0,VALID,18.533,VALID,124,VALID,0,
2012-03-02, 03:40:04,VALID,913.605,VALID,0,VALID,96.4896,VALID,0,VALID,18.3756,VALID,124,VALID,0,
2012-03-02, 03:41:04,VALID,913.576,VALID,0,VALID,96.3066,VALID,0,VALID,18.2601,VALID,124,VALID,0,
2012-03-02, 03:42:04,VALID,913.591,VALID,0,VALID,96.8479,VALID,0,VALID,18.3575,VALID,124,VALID,1.70078,
2012-03-02, 03:43:04,VALID,913.578,VALID,0,VALID,97.0156,VALID,0,VALID,18.455,VALID,124,VALID,1.15781,
2012-03-02, 03:44:04,VALID,913.584,VALID,0,VALID,96.6802,VALID,0,VALID,18.4341,VALID,124,VALID,0.252734,
2012-03-02, 03:45:04,VALID,913.611,VALID,0,VALID,96.5734,VALID,0.107441,VALID,18.3937,VALID,124,VALID,0.15,
2012-03-02, 03:46:04,VALID,913.609,VALID,0,VALID,96.6268,VALID,0,VALID,18.4132,VALID,123,VALID,0,
2012-03-02, 03:47:04,VALID,913.553,VALID,0,VALID,96.6115,VALID,0.107441,VALID,18.4536,VALID,123,VALID,0.450391,
2012-03-02, 03:48:04,VALID,913.558,VALID,0,VALID,96.5658,VALID,0,VALID,18.4745,VALID,124,VALID,0.664063,
2012-03-02, 03:49:04,VALID,913.58,VALID,0,VALID,96.4667,VALID,0,VALID,18.455,VALID,124,VALID,0.194531,
2012-03-02, 03:50:04,VALID,913.61,VALID,0,VALID,96.4286,VALID,0.107441,VALID,18.4146,VALID,124,VALID,0.723047,